Henderson, NV

11:37 AM PST on January 23, 2017 (GMT -0800)
Henderson

Weather History for KHND - March, 2014

Change the Weather History Date:

Wednesday, March 19, 2014

  Actual Average (KLAS) Record (KLAS)
Temperature  
Mean Temperature 51 °F -  
Max Temperature 66 °F 70 °F 88 °F (1939)
Min Temperature 36 °F 45 °F 31 °F (1937)
Degree Days  
Heating Degree Days 14    
Growing Degree Days 1 (Base 50)    
Moisture  
Dew Point 4 °F    
Average Humidity 17    
Maximum Humidity 35    
Minimum Humidity 4    
Precipitation  
Precipitation 0.00 in - - ()
Sea Level Pressure  
Sea Level Pressure 30.15 in    
Wind  
Wind Speed 4 mph (ESE)    
Max Wind Speed 14 mph    
Max Gust Speed 20 mph    
Visibility 10 miles    
Events      
Averages and records for this station are not official NWS values.
T = Trace of Precipitation, MM = Missing Value Source: NWS Daily Summary

Daily Weather History Graph

Daily Weather History Graph

Search for Another Location

Airport or City:

Trip Planner

Search our weather history database for the weather conditions in past years. The results will help you decide how hot, cold, wet, or windy it might be!

Date:

Astronomy

Mar. 19, 2014 Rise Set
Actual Time 6:45 AM PDT 6:51 PM PDT
Civil Twilight 6:19 AM PDT 7:17 PM PDT
Nautical Twilight 5:50 AM PDT 7:46 PM PDT
Astronomical Twilight 5:19 AM PDT 8:17 PM PDT
Moon 10:07 PM PDT (3/19) 8:19 AM PDT (3/19)
Length of Visible Light 12h 57m
Length of Day
12h 06m
Waning Gibbous, 90% of the Moon is Illuminated
Mar 19
Waning Gibbous
Mar 23
Last Quarter
Mar 30
New
Apr 7
First Quarter
Apr 15
Full

Hourly Weather History & Observations

Time (PDT) Temp. Windchill Dew Point Humidity Pressure Visibility Wind Dir Wind Speed Gust Speed Precip Events Conditions
12:56 AM 45.0 °F - 12.0 °F 26% 30.10 in 10.0 mi Calm Calm - N/A   Clear
1:56 AM 43.0 °F 40.3 °F 8.1 °F 24% 30.12 in 10.0 mi SSW 4.6 mph - N/A   Clear
2:56 AM 41.9 °F - 9.1 °F 26% 30.13 in 10.0 mi Calm Calm - N/A   Clear
3:56 AM 38.8 °F 33.8 °F 9.1 °F 29% 30.15 in 10.0 mi South 6.9 mph - N/A   Clear
4:56 AM 38.8 °F 33.8 °F 10.0 °F 31% 30.16 in 10.0 mi SSE 6.9 mph - N/A   Clear
5:56 AM 39.9 °F - 10.0 °F 29% 30.18 in 10.0 mi Calm Calm - N/A   Clear
6:56 AM 36.9 °F 33.1 °F 11.1 °F 35% 30.20 in 10.0 mi South 4.6 mph - N/A   Clear
7:56 AM 43.9 °F 42.3 °F 11.1 °F 26% 30.21 in 10.0 mi SSW 3.5 mph - N/A   Clear
8:56 AM 50.0 °F - 9.1 °F 19% 30.22 in 10.0 mi North 3.5 mph - N/A   Clear
9:56 AM 54.0 °F - 9.1 °F 17% 30.22 in 10.0 mi NNE 4.6 mph - N/A   Clear
10:56 AM 55.9 °F - 8.1 °F 15% 30.22 in 10.0 mi Variable 5.8 mph - N/A   Clear
11:56 AM 59.9 °F - 6.1 °F 12% 30.21 in 10.0 mi NNE 8.1 mph 17.3 mph N/A   Clear
12:56 PM 61.0 °F - 5.0 °F 11% 30.18 in 10.0 mi NNE 4.6 mph - N/A   Clear
1:56 PM 64.9 °F - -0.9 °F 7% 30.14 in 10.0 mi NE 13.8 mph 19.6 mph N/A   Clear
2:56 PM 65.8 °F - -6.9 °F 5% 30.12 in 10.0 mi ENE 8.1 mph - N/A   Clear
3:56 PM 65.8 °F - -8.0 °F 5% 30.11 in 10.0 mi North 5.8 mph - N/A   Clear
4:56 PM 66.9 °F - -9.9 °F 4% 30.10 in 10.0 mi NNE 5.8 mph - N/A   Clear
5:56 PM 64.9 °F - -13.0 °F 4% 30.10 in 10.0 mi Calm Calm - N/A   Clear
6:56 PM 63.0 °F - -6.9 °F 6% 30.11 in 10.0 mi Calm Calm - N/A   Clear
7:56 PM 55.9 °F - 6.1 °F 14% 30.12 in 10.0 mi Calm Calm - N/A   Clear
8:56 PM 52.9 °F - 5.0 °F 14% 30.12 in 10.0 mi SSE 8.1 mph - N/A   Clear
9:56 PM 50.0 °F - 0.1 °F 13% 30.12 in 10.0 mi South 4.6 mph - N/A   Clear
10:56 PM 46.9 °F - 2.1 °F 16% 30.12 in 10.0 mi SSE 8.1 mph - N/A   Clear
11:56 PM 45.9 °F 41.2 °F 3.0 °F 17% 30.12 in 10.0 mi SSE 9.2 mph - N/A   Clear